Weather History for Independence, KS

Change the Weather History Date:

Monday, April 1, 2013

  Actual Average (KCFV) Record (KCFV)
Temperature  
Mean Temperature 42 °F -  
Max Temperature 46 °F 63 °F 89 °F (2012)
Min Temperature 39 °F 41 °F 30 °F (2001)
Degree Days  
Heating Degree Days 22    
Moisture  
Dew Point 36 °F    
Average Humidity 75    
Maximum Humidity 93    
Minimum Humidity 65    
Precipitation  
Precipitation 0.00 in - - ()
Sea Level Pressure  
Sea Level Pressure 30.15 in    
Wind  
Wind Speed 9 mph (NNE)    
Max Wind Speed 23 mph    
Max Gust Speed 26 mph    
Visibility 10 miles    
Events Rain , Thunderstorm    
Averages and records for this station are not official NWS values.
T = Trace of Precipitation, MM = Missing Value Source: NWS Daily Summary

Daily Weather History Graph

Daily Weather History Graph

Search for Another Location

Airport:

Trip Planner

Search our weather history database for the weather conditions in past years. The results will help you decide how hot, cold, wet, or windy it might be!

Date:

Astronomy

Apr. 01, 2013 Rise Set
Actual Time 7:08 AM CDT 7:45 PM CDT
Civil Twilight 6:42 AM CDT 8:12 PM CDT
Nautical Twilight 6:11 AM CDT 8:43 PM CDT
Astronomical Twilight 5:39 AM CDT 9:14 PM CDT
Moon 12:49 AM CDT 11:02 AM CDT
Length of Visible Light 13h 30m
Length of Day
12h 37m
Waning Gibbous, 67% of the Moon is Illuminated
Apr 1
Waning Gibbous
Apr 2
Last Quarter
Apr 10
New
Apr 18
First Quarter
Apr 25
Full

Hourly Weather History & Observations

Time (CDT) Temp. Windchill Dew Point Humidity Pressure Visibility Wind Dir Wind Speed Gust Speed Precip Events Conditions
12:15 AM 46.4 °F 45.2 °F 42.8 °F 87% 29.98 in 10.0 mi SW 3.5 mph - N/A   Clear
12:35 AM 46.4 °F 44.3 °F 42.8 °F 87% 29.97 in 10.0 mi South 4.6 mph - N/A   Clear
12:55 AM 44.6 °F 43.1 °F 42.8 °F 93% 29.97 in 10.0 mi SSW 3.5 mph - N/A   Clear
1:15 AM 46.4 °F - 42.8 °F 87% 29.98 in 10.0 mi Calm Calm - N/A   Clear
1:35 AM 46.4 °F - 41.0 °F 81% 29.99 in 10.0 mi Calm Calm - N/A   Clear
1:55 AM 46.4 °F - 41.0 °F 81% 29.99 in 10.0 mi Calm Calm - N/A   Clear
2:15 AM 46.4 °F - 41.0 °F 81% 29.99 in 10.0 mi Calm Calm - N/A   Clear
2:35 AM 44.6 °F - 41.0 °F 87% 30.00 in 10.0 mi Calm Calm - N/A   Clear
2:55 AM 42.8 °F 38.0 °F 41.0 °F 93% 30.00 in 10.0 mi NNE 8.1 mph - N/A   Clear
3:15 AM 42.8 °F 40.1 °F 41.0 °F 93% 30.00 in 10.0 mi NE 4.6 mph - N/A   Clear
3:35 AM 42.8 °F - 39.2 °F 87% 30.00 in 10.0 mi Calm Calm - N/A   Clear
4:15 AM 42.8 °F 41.1 °F 41.0 °F 93% 30.02 in 10.0 mi North 3.5 mph - N/A   Clear
4:35 AM 42.8 °F 40.1 °F 37.4 °F 81% 30.02 in 10.0 mi North 4.6 mph - N/A   Clear
5:15 AM 44.6 °F 38.1 °F 37.4 °F 76% 30.06 in 10.0 mi North 13.8 mph 18.4 mph N/A   Clear
5:35 AM 42.8 °F 36.2 °F 37.4 °F 81% 30.07 in 10.0 mi NNE 12.7 mph - N/A   Clear
5:55 AM 42.8 °F 35.8 °F 37.4 °F 81% 30.10 in 10.0 mi NNE 13.8 mph - N/A   Clear
6:15 AM 42.8 °F 34.5 °F 35.6 °F 76% 30.11 in 10.0 mi NE 18.4 mph 24.2 mph N/A   Clear
6:35 AM 42.8 °F 35.8 °F 33.8 °F 70% 30.12 in 10.0 mi NE 13.8 mph - N/A   Clear
6:55 AM 42.8 °F 35.4 °F 33.8 °F 70% 30.12 in 10.0 mi NE 15.0 mph - N/A   Clear
7:15 AM 41.0 °F 34.3 °F 33.8 °F 76% 30.14 in 10.0 mi NE 11.5 mph - N/A   Clear
7:35 AM 41.0 °F 34.3 °F 33.8 °F 76% 30.15 in 10.0 mi NE 11.5 mph - N/A   Clear
7:55 AM 42.8 °F 35.8 °F 33.8 °F 70% 30.16 in 10.0 mi NE 13.8 mph - N/A   Clear
8:15 AM 42.8 °F 35.4 °F 35.6 °F 76% 30.17 in 10.0 mi NE 15.0 mph 19.6 mph N/A   Clear
8:35 AM 42.8 °F 35.4 °F 35.6 °F 76% 30.17 in 10.0 mi NNE 15.0 mph - N/A   Clear
8:55 AM 44.6 °F 37.8 °F 35.6 °F 71% 30.18 in 10.0 mi NNE 15.0 mph - N/A   Clear
9:15 AM 44.6 °F 35.9 °F 35.6 °F 71% 30.18 in 10.0 mi NE 23.0 mph 26.5 mph N/A   Clear
9:35 AM 44.6 °F 36.6 °F 35.6 °F 71% 30.19 in 10.0 mi NE 19.6 mph 25.3 mph N/A   Clear
9:55 AM 46.4 °F 39.5 °F 37.4 °F 71% 30.20 in 10.0 mi NE 17.3 mph - N/A   Clear
10:15 AM 44.6 °F 37.4 °F 35.6 °F 71% 30.20 in 10.0 mi NNE 16.1 mph 23.0 mph N/A   Scattered Clouds
10:35 AM 46.4 °F 39.5 °F 37.4 °F 71% 30.20 in 10.0 mi NNE 17.3 mph 24.2 mph N/A   Mostly Cloudy
10:55 AM 44.6 °F 37.4 °F 37.4 °F 76% 30.21 in 10.0 mi NNE 16.1 mph - N/A   Overcast
11:15 AM 46.4 °F 39.8 °F 37.4 °F 71% 30.22 in 10.0 mi NE 16.1 mph - N/A Thunderstorm Mostly Cloudy
11:35 AM 44.6 °F 38.1 °F 37.4 °F 76% 30.22 in 10.0 mi North 13.8 mph - N/A   Mostly Cloudy
11:55 AM 44.6 °F 36.9 °F 37.4 °F 76% 30.21 in 10.0 mi NNE 18.4 mph - N/A   Overcast
12:15 PM 46.4 °F 40.4 °F 37.4 °F 71% 30.22 in 10.0 mi NNE 13.8 mph - N/A   Overcast
12:35 PM 44.6 °F 38.1 °F 35.6 °F 71% 30.23 in 10.0 mi NE 13.8 mph - N/A   Overcast
12:55 PM 46.4 °F 41.1 °F 35.6 °F 66% 30.24 in 10.0 mi NE 11.5 mph 19.6 mph N/A   Overcast
1:15 PM 46.4 °F 39.8 °F 35.6 °F 66% 30.25 in 10.0 mi North 16.1 mph - N/A   Overcast
1:35 PM 44.6 °F 38.8 °F 35.6 °F 71% 30.25 in 10.0 mi North 11.5 mph - N/A   Light Drizzle
2:15 PM 42.8 °F 34.3 °F 37.4 °F 81% 30.19 in 5.0 mi NE 19.6 mph - N/A Rain Rain
2:35 PM 42.8 °F 37.0 °F 35.6 °F 76% 30.23 in 7.0 mi North 10.4 mph - N/A Rain Rain
2:55 PM 42.8 °F 36.6 °F 35.6 °F 76% 30.23 in 7.0 mi North 11.5 mph - N/A Rain Rain
3:15 PM 41.0 °F 33.9 °F 35.6 °F 81% 30.21 in 7.0 mi NNE 12.7 mph - N/A Rain Rain
3:35 PM 41.0 °F 32.5 °F 35.6 °F 81% 30.17 in 10.0 mi NE 17.3 mph - N/A Rain Light Rain
3:55 PM 41.0 °F 33.5 °F 35.6 °F 81% 30.19 in 10.0 mi NNE 13.8 mph - N/A   Overcast
4:15 PM 42.8 °F 37.5 °F 35.6 °F 76% 30.20 in 10.0 mi NNE 9.2 mph - N/A   Mostly Cloudy
4:35 PM 42.8 °F 37.5 °F 33.8 °F 70% 30.21 in 10.0 mi North 9.2 mph - N/A   Mostly Cloudy
5:15 PM 44.6 °F 38.8 °F 33.8 °F 66% 30.20 in 10.0 mi NNE 11.5 mph - N/A   Overcast
5:35 PM 42.8 °F 37.0 °F 32.0 °F 66% 30.19 in 10.0 mi NNE 10.4 mph - N/A   Overcast
5:55 PM 42.8 °F 36.2 °F 32.0 °F 66% 30.19 in 10.0 mi NNE 12.7 mph 18.4 mph N/A   Overcast
6:15 PM 42.8 °F 36.2 °F 32.0 °F 66% 30.19 in 10.0 mi NNE 12.7 mph - N/A   Overcast
6:35 PM 42.8 °F 36.2 °F 32.0 °F 66% 30.18 in 10.0 mi NE 12.7 mph - N/A   Overcast
6:55 PM 42.8 °F 36.6 °F 32.0 °F 66% 30.18 in 10.0 mi NE 11.5 mph - N/A   Overcast
7:15 PM 42.8 °F 37.5 °F 32.0 °F 66% 30.19 in 10.0 mi NNE 9.2 mph - N/A   Overcast
7:35 PM 42.8 °F 37.5 °F 32.0 °F 66% 30.19 in 10.0 mi NNE 9.2 mph - N/A   Overcast
7:55 PM 42.8 °F 39.3 °F 32.0 °F 66% 30.20 in 10.0 mi North 5.8 mph - N/A   Overcast
8:15 PM 41.0 °F 34.3 °F 32.0 °F 70% 30.18 in 10.0 mi NNE 11.5 mph - N/A   Light Drizzle
8:35 PM 41.0 °F 35.8 °F 32.0 °F 70% 30.20 in 10.0 mi North 8.1 mph - N/A Rain Rain
8:55 PM 41.0 °F 35.2 °F 32.0 °F 70% 30.21 in 10.0 mi NNE 9.2 mph - N/A Rain Light Rain
9:15 PM 39.2 °F 33.6 °F 33.8 °F 81% 30.20 in 10.0 mi NNE 8.1 mph - N/A Rain Light Rain
9:35 PM 39.2 °F 33.6 °F 33.8 °F 81% 30.21 in 10.0 mi NNE 8.1 mph - N/A Rain Light Rain
9:55 PM 39.2 °F 33.6 °F 33.8 °F 81% 30.22 in 10.0 mi NNE 8.1 mph - N/A Rain Light Rain
10:15 PM 39.2 °F 34.2 °F 33.8 °F 81% 30.23 in 10.0 mi North 6.9 mph - N/A   Overcast
10:35 PM 39.2 °F 32.5 °F 33.8 °F 81% 30.23 in 10.0 mi NNE 10.4 mph - N/A   Overcast
10:55 PM 41.0 °F 34.7 °F 32.0 °F 70% 30.22 in 10.0 mi NE 10.4 mph - N/A   Overcast
11:15 PM 41.0 °F 33.9 °F 32.0 °F 70% 30.22 in 10.0 mi NNE 12.7 mph - N/A   Overcast
11:35 PM 41.0 °F 33.5 °F 30.2 °F 65% 30.22 in 10.0 mi NE 13.8 mph - N/A   Overcast
11:55 PM 41.0 °F 34.7 °F 30.2 °F 65% 30.23 in 10.0 mi NE 10.4 mph - N/A   Overcast